Wind_Speed
18 18 18 19 19 19 18 18 18 17 17 18 18 19 19 19 19 19 20 20 19 19 20 20 20 19 19 19 19 19 19 19 19 19 19 19 19 20 19 19 20 20 20
19 19 19 19 19 19 19 18 18 18 17 18 19 19 19 20 20 20 21 21 20 20 20 21 21 21 20 20 19 19 20 20 20 20 20 21 21 20 21 20 20 20 20
19 19 19 19 19 19 19 19 19 18 18 19 19 19 20 20 20 20 21 21 21 21 21 21 22 22 22 21 20 20 21 21 22 22 21 22 22 21 21 21 20 20 20
20 20 19 19 19 19 19 19 19 19 18 19 19 20 20 20 20 21 22 23 22 22 22 22 22 23 23 23 22 22 22 22 22 22 23 23 23 23 23 22 22 21 21
21 21 20 20 20 20 19 20 20 19 19 19 19 20 20 20 21 22 22 23 23 24 24 24 23 23 24 24 24 24 24 24 24 23 24 24 24 25 25 24 24 23 23
21 21 21 20 20 20 20 20 21 21 21 21 21 21 22 22 22 22 22 23 24 24 24 24 25 25 25 26 25 26 26 25 25 25 25 25 25 26 26 26 26 25 25
22 22 21 20 20 21 21 22 22 22 22 23 22 22 22 23 23 23 24 24 24 24 24 25 26 26 26 27 28 28 27 27 27 27 27 27 27 27 27 27 26 26 26
22 23 23 22 22 22 22 22 22 22 22 23 24 23 23 23 23 23 23 23 23 24 25 26 27 27 28 28 28 28 28 27 27 28 29 28 28 27 27 27 27 27 26
23 23 23 23 23 23 22 23 23 23 23 23 24 24 23 23 23 24 24 24 24 24 25 27 27 28 28 29 29 29 29 29 29 29 29 30 29 29 29 29 29 28 28
23 24 23 23 23 23 23 23 23 24 24 24 25 25 25 25 25 25 26 26 26 26 26 27 28 28 29 30 30 30 30 31 31 30 30 30 31 30 30 30 30 29 29
24 24 24 24 24 24 24 24 24 25 26 26 26 27 27 27 27 27 27 27 27 27 27 28 28 29 29 30 30 31 31 31 31 31 32 32 31 31 31 31 31 31 31
24 25 25 25 25 25 25 26 26 26 27 27 28 29 29 28 28 28 29 28 28 29 29 29 29 30 30 30 31 31 31 32 32 31 32 33 32 32 32 32 33 33 33
25 25 26 26 26 27 27 27 27 27 28 28 29 30 30 30 30 30 30 30 30 30 29 30 30 31 31 31 31 31 30 31 32 32 32 33 33 33 33 33 34 34 34
26 26 26 27 28 28 28 28 28 28 28 29 29 30 30 31 31 31 31 31 31 31 31 31 32 32 32 32 32 31 31 31 32 33 33 33 34 35 35 35 35 35 35
26 27 27 27 28 29 30 30 29 29 30 30 31 31 32 32 33 33 33 33 33 33 33 33 33 33 33 33 32 32 32 32 33 34 35 35 35 35 36 36 36 37 37
26 27 27 27 28 29 30 30 30 30 30 30 30 31 32 32 33 33 33 33 33 33 34 34 34 33 33 33 33 33 33 33 34 34 35 36 36 36 36 37 36 37 37
27 28 27 28 28 29 29 30 30 30 30 30 30 31 31 32 33 33 33 34 34 34 33 33 33 33 33 33 33 33 34 34 34 35 35 35 36 36 36 36 36 37 37
29 30 29 29 29 29 29 29 30 30 30 30 31 31 32 32 32 33 33 33 33 33 33 33 33 34 34 33 33 34 34 34 35 35 36 36 36 36 36 36 36 37 37
30 30 30 30 29 29 29 29 29 30 30 31 31 31 31 31 31 32 32 32 33 33 33 33 33 33 34 34 34 34 35 35 35 35 35 36 36 37 36 37 37 38 38
30 30 29 29 30 29 29 29 30 30 30 30 31 31 31 31 31 31 31 32 32 33 33 33 33 33 34 35 35 35 36 36 36 36 36 37 37 37 37 38 38 39 40
29 29 29 29 30 30 29 29 29 30 30 31 31 31 31 31 31 31 32 32 32 33 33 34 34 34 35 36 36 37 37 36 37 37 37 38 38 38 38 38 39 40 41
29 28 28 29 30 30 29 29 30 30 30 30 30 30 31 31 32 32 32 32 33 34 34 34 35 35 35 36 36 37 37 38 38 38 38 38 38 39 39 39 39 40 41
29 29 28 28 28 29 29 29 29 29 30 30 31 31 31 31 32 33 33 33 34 34 34 34 35 35 35 36 36 37 38 38 38 38 39 39 40 40 40 40 40 40 40
29 29 29 29 29 29 29 29 30 30 30 31 31 32 32 32 33 33 34 34 35 35 35 35 35 36 36 36 36 37 37 38 39 39 39 40 40 40 40 40 39 39 40
29 29 29 29 29 29 29 30 30 30 31 31 31 32 32 33 33 33 33 34 34 35 36 36 36 36 36 36 37 37 37 38 38 38 39 40 39 39 39 39 38 38 39
29 29 29 29 29 29 30 30 31 31 31 31 31 32 32 32 33 33 33 33 34 34 35 36 36 37 37 37 37 37 37 37 37 38 38 38 39 38 38 38 38 38 38
Wind_Direction
282 280 278 278 280 281 280 278 276 274 271 268 264 263 264 263 261 259 259 257 254 253 254 255 257 257 259 261 262 262 262 262 262 261 263 263 264 267 268 268 269 269 271
282 281 281 281 281 281 280 278 275 275 273 270 265 265 264 264 263 261 257 255 255 255 254 256 256 256 259 261 262 262 262 262 263 263 264 266 266 267 268 268 268 268 269
284 283 280 281 280 280 280 278 274 273 271 271 269 269 267 266 264 262 259 257 255 256 256 257 257 257 259 260 262 263 264 263 262 263 263 266 266 267 268 268 268 268 270
285 283 281 278 278 277 278 276 274 274 273 271 270 270 269 267 266 265 262 261 259 257 259 258 257 258 259 260 263 265 266 265 264 263 264 265 265 265 267 267 267 268 268
286 285 283 278 275 276 275 275 274 273 271 271 269 269 269 269 267 265 263 262 262 262 261 260 258 258 260 261 263 265 265 266 265 265 265 266 265 265 266 267 267 267 267
284 284 284 281 276 276 275 274 274 273 271 270 269 268 268 268 269 266 263 262 262 263 264 264 263 261 262 262 262 263 264 265 265 265 264 265 266 265 265 266 266 266 267
282 282 282 279 277 278 275 274 273 274 274 272 269 268 267 268 270 267 265 265 265 265 264 264 264 265 265 264 264 264 264 264 264 265 265 265 266 265 266 266 266 266 267
281 280 280 277 275 276 276 275 274 274 273 271 270 269 270 270 268 265 265 265 267 266 265 264 264 264 267 268 268 267 265 264 263 264 265 265 266 266 266 265 265 265 266
281 280 280 277 275 274 275 276 275 274 274 273 272 271 269 269 268 266 264 266 267 267 267 267 266 266 267 268 269 269 267 265 264 264 265 265 264 265 265 265 265 266 267
279 279 278 276 276 275 275 276 275 273 275 274 273 272 271 269 269 269 269 268 268 267 268 267 267 269 269 268 269 269 269 267 265 265 265 265 264 264 265 265 265 266 267
279 277 276 275 275 275 275 274 275 274 274 274 273 273 272 271 270 269 269 269 269 269 268 268 269 270 270 269 269 269 269 268 268 266 265 265 264 264 264 265 265 266 267
281 278 275 274 274 274 274 275 275 275 274 274 274 274 274 273 272 271 271 270 270 270 269 268 269 270 269 270 269 268 268 267 268 268 267 266 266 265 264 264 264 265 265
284 281 277 275 274 274 274 274 276 277 276 276 275 275 274 273 272 271 270 270 269 270 270 269 269 270 270 270 270 269 267 266 267 267 267 266 266 266 265 264 264 264 264
284 283 280 277 275 273 274 275 276 277 277 277 277 276 275 273 272 272 272 270 269 269 270 270 270 270 271 271 271 269 267 266 266 266 266 267 267 267 266 265 265 264 264
284 282 281 278 276 275 275 277 277 278 278 277 277 275 274 274 273 273 272 271 270 270 269 269 270 270 271 271 270 269 267 268 268 268 267 267 268 268 266 265 266 265 263
285 284 282 281 279 277 278 278 278 279 279 279 278 277 276 275 274 273 272 271 270 270 269 269 269 269 270 270 269 269 269 270 269 269 268 268 268 268 267 266 265 265 264
284 283 282 282 282 281 281 281 279 279 279 278 278 277 277 276 275 274 273 272 271 271 270 270 269 269 269 269 269 269 270 270 269 269 268 268 268 270 269 266 264 263 264
285 284 284 285 285 283 282 282 281 281 279 279 278 278 277 277 275 274 273 273 272 271 271 271 270 269 269 269 269 269 270 269 269 269 269 269 268 269 269 267 264 263 263
287 286 285 286 285 284 284 283 282 282 282 281 279 279 278 277 276 273 272 272 272 272 272 272 271 270 270 269 269 270 270 270 269 269 268 268 268 268 268 268 265 262 262
288 286 285 285 285 285 285 284 283 283 283 282 282 281 279 278 277 274 272 273 274 273 272 272 272 272 271 270 270 271 270 269 269 269 268 268 268 268 267 268 266 264 263
290 287 284 283 284 284 284 284 285 285 285 284 282 282 281 280 279 277 275 274 274 274 273 273 273 273 272 271 272 272 272 271 270 269 268 267 267 267 268 268 267 265 264
290 289 287 284 283 284 284 285 286 287 286 285 284 282 281 281 280 279 277 276 276 276 274 273 273 274 273 272 273 273 273 273 272 271 270 268 267 267 268 268 267 266 264
290 288 288 287 286 285 285 286 287 287 287 287 286 284 283 282 281 281 280 279 277 277 276 275 274 274 274 274 274 274 274 274 274 273 272 270 269 268 268 268 266 265 264
290 288 287 287 288 287 287 287 288 288 289 288 287 285 284 283 283 282 281 280 279 278 276 276 275 275 275 275 274 274 275 275 274 274 273 272 270 269 268 268 267 266 265
289 288 288 286 286 287 288 289 290 289 289 288 288 287 286 285 284 283 283 282 281 279 278 277 275 274 275 275 274 274 275 275 275 275 273 272 270 269 268 267 266 266 264
290 289 288 287 287 287 288 289 289 290 289 289 289 288 287 285 285 284 284 284 283 282 280 278 277 275 275 275 274 274 274 275 275 274 273 272 270 269 267 266 266 266 265
Height
5795 5794 5792 5791 5791 5789 5788 5787 5786 5785 5785 5784 5784 5784 5784 5785 5785 5786 5786 5787 5788 5789 5790 5790 5791 5792 5792 5792 5793 5793 5793 5793 5793 5793 5793 5792 5792 5792 5791 5790 5789 5788 5787
5790 5788 5787 5786 5785 5784 5783 5782 5781 5780 5780 5780 5779 5779 5780 5780 5780 5780 5781 5782 5783 5783 5784 5785 5785 5786 5786 5787 5787 5787 5787 5787 5787 5787 5787 5787 5786 5786 5785 5784 5783 5782 5781
5784 5782 5781 5780 5780 5779 5778 5777 5776 5775 5775 5775 5775 5774 5774 5774 5774 5774 5775 5776 5777 5778 5778 5779 5779 5780 5780 5781 5781 5781 5781 5781 5781 5781 5781 5781 5780 5780 5779 5779 5778 5777 5776
5778 5777 5776 5775 5774 5773 5772 5772 5771 5770 5770 5769 5769 5769 5769 5769 5769 5769 5769 5770 5770 5771 5772 5772 5773 5773 5774 5774 5775 5775 5775 5775 5774 5774 5774 5774 5774 5773 5773 5773 5772 5771 5770
5772 5771 5769 5769 5768 5767 5766 5766 5765 5765 5764 5764 5764 5763 5763 5763 5763 5763 5763 5763 5764 5764 5765 5765 5766 5766 5767 5767 5768 5768 5768 5768 5768 5768 5768 5767 5767 5767 5766 5766 5765 5765 5764
5766 5765 5763 5762 5761 5761 5760 5760 5759 5758 5758 5758 5758 5757 5757 5757 5756 5756 5756 5757 5757 5757 5757 5758 5758 5759 5759 5760 5760 5760 5760 5760 5760 5761 5761 5760 5760 5759 5759 5759 5758 5758 5758
5760 5759 5757 5756 5755 5754 5754 5753 5753 5752 5752 5751 5751 5751 5750 5750 5750 5750 5749 5750 5750 5750 5750 5751 5751 5752 5752 5752 5752 5752 5752 5752 5753 5753 5753 5752 5752 5752 5752 5751 5751 5751 5750
5753 5752 5751 5750 5749 5748 5748 5747 5746 5746 5745 5744 5744 5744 5743 5743 5743 5743 5743 5743 5743 5743 5743 5743 5743 5743 5743 5743 5743 5743 5744 5744 5744 5744 5744 5744 5744 5743 5743 5743 5743 5743 5743
5746 5745 5744 5743 5743 5742 5741 5740 5740 5739 5738 5737 5737 5736 5736 5736 5735 5735 5735 5735 5735 5735 5735 5735 5734 5735 5735 5735 5734 5734 5735 5735 5734 5734 5734 5735 5734 5734 5734 5735 5735 5735 5735
5739 5738 5737 5736 5736 5735 5734 5733 5733 5732 5731 5730 5730 5729 5728 5728 5728 5727 5727 5727 5727 5727 5726 5726 5726 5726 5726 5725 5725 5725 5725 5725 5725 5725 5725 5725 5725 5725 5725 5725 5726 5726 5726
5731 5730 5729 5729 5728 5727 5727 5726 5725 5724 5724 5723 5722 5721 5720 5719 5719 5719 5718 5718 5718 5718 5717 5717 5717 5717 5716 5716 5715 5716 5716 5715 5715 5715 5715 5715 5715 5716 5716 5716 5716 5717 5717
5723 5722 5721 5720 5720 5719 5718 5718 5717 5716 5715 5714 5713 5712 5711 5710 5710 5709 5709 5708 5708 5708 5708 5708 5707 5707 5706 5706 5706 5706 5706 5705 5705 5705 5705 5705 5705 5706 5706 5706 5706 5707 5707
5715 5713 5712 5711 5711 5710 5709 5709 5708 5707 5706 5705 5704 5703 5702 5701 5700 5699 5699 5699 5698 5698 5698 5698 5697 5697 5696 5696 5696 5696 5695 5695 5695 5695 5695 5695 5695 5695 5695 5695 5695 5696 5696
5706 5705 5703 5702 5701 5700 5700 5699 5698 5697 5696 5695 5694 5693 5691 5691 5690 5689 5689 5688 5688 5688 5688 5687 5687 5686 5686 5686 5685 5685 5685 5685 5685 5684 5684 5684 5684 5684 5684 5684 5684 5684 5685
5698 5696 5694 5693 5692 5691 5690 5689 5688 5687 5686 5685 5683 5682 5681 5680 5679 5678 5678 5678 5677 5677 5677 5676 5676 5676 5675 5675 5674 5674 5674 5674 5673 5673 5673 5672 5672 5672 5672 5672 5672 5673 5673
5689 5687 5686 5684 5682 5681 5680 5679 5677 5676 5675 5674 5672 5671 5669 5669 5668 5667 5666 5666 5666 5666 5665 5665 5665 5665 5665 5664 5664 5663 5663 5662 5662 5662 5661 5661 5660 5660 5660 5660 5660 5660 5661
5680 5678 5676 5674 5673 5671 5670 5668 5667 5666 5664 5663 5661 5660 5659 5657 5656 5656 5655 5655 5655 5654 5654 5654 5654 5653 5653 5653 5653 5652 5652 5651 5651 5650 5650 5650 5649 5648 5648 5647 5648 5648 5649
5670 5668 5667 5665 5663 5661 5660 5658 5657 5655 5654 5652 5651 5649 5648 5646 5645 5644 5644 5644 5643 5643 5643 5643 5642 5642 5642 5642 5641 5641 5640 5639 5639 5638 5638 5638 5638 5637 5636 5636 5636 5636 5637
5660 5658 5656 5655 5653 5652 5650 5648 5646 5645 5643 5642 5640 5639 5637 5636 5635 5634 5633 5633 5633 5632 5632 5631 5631 5631 5630 5630 5630 5629 5628 5628 5627 5627 5626 5626 5626 5625 5625 5624 5624 5625 5625
5650 5648 5646 5645 5643 5641 5640 5638 5637 5635 5633 5631 5630 5628 5627 5625 5624 5623 5623 5622 5622 5621 5620 5620 5619 5619 5619 5618 5618 5617 5616 5616 5615 5615 5614 5614 5613 5613 5612 5612 5612 5612 5612
5640 5638 5636 5634 5633 5631 5630 5628 5627 5625 5623 5621 5620 5618 5616 5615 5614 5613 5612 5611 5610 5609 5609 5608 5608 5607 5606 5606 5605 5605 5604 5603 5603 5602 5602 5601 5600 5600 5599 5599 5599 5599 5599
5630 5628 5626 5625 5623 5621 5620 5618 5616 5614 5612 5611 5609 5608 5606 5605 5603 5602 5601 5600 5599 5598 5597 5596 5595 5595 5594 5593 5593 5592 5591 5590 5589 5589 5588 5588 5587 5586 5586 5586 5585 5585 5585
5621 5619 5617 5615 5613 5611 5610 5608 5606 5604 5602 5600 5598 5597 5595 5594 5592 5591 5590 5588 5587 5586 5584 5583 5583 5582 5581 5580 5580 5579 5578 5577 5576 5575 5575 5574 5573 5573 5572 5572 5572 5571 5571
5611 5609 5607 5605 5604 5602 5600 5598 5596 5594 5592 5590 5588 5586 5584 5583 5581 5579 5578 5576 5575 5574 5572 5571 5570 5569 5568 5567 5566 5566 5565 5564 5563 5562 5561 5560 5560 5559 5558 5558 5558 5558 5558
5601 5599 5598 5596 5594 5592 5590 5588 5585 5583 5581 5579 5577 5575 5573 5571 5570 5568 5566 5564 5563 5561 5560 5559 5557 5556 5555 5554 5553 5552 5552 5550 5549 5548 5547 5546 5546 5545 5545 5545 5545 5545 5545
5592 5589 5588 5586 5584 5582 5579 5577 5575 5573 5570 5568 5566 5564 5562 5560 5558 5556 5554 5553 5551 5549 5547 5546 5544 5543 5542 5541 5540 5539 5538 5537 5536 5535 5533 5533 5532 5532 5532 5532 5532 5532 5532